Home   Weather   Heidelberg   Past weeks

Flag for Germany Past Weather in Heidelberg, Baden-Württemberg, Germany — Yesterday and Last 2 Weeks

Now
30 °F

Snow flurries. Ice fog.


Feels Like: 23 °F
Forecast: 26 / 42 °F
Wind: 7 mph from South

Location: Frankfurt-M-Flughafen Airport

Current Time: Dec 8, 2016 at 5:06:18 am

Latest Report: Dec 8, 2016 at 4:20 am


Visibility: 0 mi

Pressure: 30.54 "Hg

Humidity: 100%

Dew Point: 30 °F

Location of HeidelbergLocation

Past Weather in Heidelberg — Graph

°F

Heidelberg Temperature Yesterday

Maximum temperature yesterday: 30 °F (at 1:50 am)
Minimum temperature yesterday: 28 °F (at 12:20 am)
Average temperature yesterday: 29 °F

High & Low Weather Summary for the Past Weeks

 TemperatureHumidityPressure
High57 °F (Nov 24, 1:50 pm)100% (Nov 27, 4:20 am)30.60 "Hg (Nov 27, 4:20 am)
Low18 °F (Nov 30, 8:20 am)48% (Nov 28, 2:20 pm)29.98 "Hg (Nov 23, 3:20 am)
Average36 °F82%30.29 "Hg
* Reported Nov 23 3:20 am — Dec 8 3:50 am, Heidelberg, Weather by CustomWeather, © 2016

Note: Actual official high and low records may vary slightly from our data, if they occured in-between our weather recording intervals... More about our weather records

Advertising

Heidelberg Weather History for the Previous 24 Hours

Scroll right to see more
 ConditionsComfort  
Time TempWeatherWind HumidityBarometerVisibility
3:50 am
Thu, Dec 8
30 °FIce fog.3 mph100%30.57 "Hg0 mi
3:20 am30 °FIce fog.7 mph100%30.57 "Hg0 mi
2:50 am30 °FIce fog.8 mph100%30.57 "Hg1 mi
2:20 am30 °FIce fog.7 mph100%30.57 "Hg1 mi
1:50 am30 °FIce fog.6 mph100%30.57 "Hg1 mi
1:20 am30 °FIce fog.7 mph100%30.57 "Hg1 mi
12:50 am30 °FIce fog.8 mph100%30.57 "Hg1 mi
12:20 am30 °FIce fog.7 mph100%30.57 "Hg1 mi
11:50 pm
Wed, Dec 7
30 °FIce fog.6 mph100%30.57 "Hg1 mi
11:20 pm30 °FIce fog.5 mph100%30.57 "Hg1 mi
10:50 pm30 °FIce fog.6 mph100%30.57 "Hg0 mi
10:20 pm30 °FIce fog.3 mph100%30.57 "Hg0 mi
9:50 pm30 °FIce fog.3 mph100%30.60 "Hg0 mi
9:20 pm30 °FIce fog.3 mph100%30.57 "Hg1 mi
8:50 pm30 °FIce fog.3 mph100%30.60 "Hg1 mi
8:20 pm30 °FIce fog.3 mph100%30.60 "Hg1 mi
7:50 pm30 °FIce fog.3 mph100%30.57 "Hg1 mi
7:20 pm30 °FIce fog.5 mph93%30.57 "Hg1 mi
6:50 pm30 °FIce fog.5 mph93%30.57 "Hg2 mi
6:20 pm30 °FIce fog.5 mph93%30.57 "Hg2 mi
5:50 pm30 °FIce fog.5 mph93%30.57 "Hg2 mi
5:20 pm30 °FIce fog.5 mph93%30.57 "Hg2 mi
4:50 pm30 °FIce fog.2 mph93%30.57 "Hg2 mi
4:20 pm30 °FIce fog.1 mph93%30.57 "Hg2 mi
3:20 pm30 °FIce fog.3 mph93%30.57 "Hg2 mi
2:50 pm30 °FIce fog.3 mph93%30.54 "Hg3 mi
2:20 pm28 °FIce fog.3 mph100%30.54 "Hg3 mi
1:50 pm28 °FSnow flurries. Ice fog.3 mph100%30.54 "Hg3 mi
1:20 pm28 °FSnow flurries. Ice fog.3 mph100%30.54 "Hg2 mi
12:50 pm28 °FSnow flurries. Ice fog.3 mph100%30.57 "Hg2 mi
12:20 pm28 °FSnow flurries. Ice fog.2 mph100%30.57 "Hg2 mi
11:50 am28 °FIce fog.5 mph100%30.57 "Hg2 mi
11:20 am28 °FIce fog.3 mph100%30.60 "Hg1 mi
10:50 am28 °FChilly.3 mph100%30.60 "Hg1 mi
10:20 am28 °FSnow flurries. Ice fog.5 mph100%30.57 "Hg1 mi
9:50 am28 °FSnow flurries. Ice fog.2 mph93%30.57 "Hg1 mi
9:20 am28 °FIce fog.5 mph93%30.57 "Hg1 mi
8:50 am28 °FChilly.5 mph93%30.57 "Hg1 mi
8:20 am28 °FChilly.3 mph100%30.57 "Hg1 mi
7:50 am28 °FChilly.2 mph100%30.57 "Hg1 mi
7:20 am28 °FChilly.3 mph100%30.57 "Hg1 mi
6:50 am28 °FChilly.3 mph100%30.57 "Hg1 mi
6:20 am28 °FChilly.3 mph100%30.57 "Hg1 mi
5:50 am28 °FIce fog.2 mph100%30.57 "Hg1 mi
5:20 am28 °FIce fog.3 mph100%30.57 "Hg2 mi
Weather by CustomWeather, © 2016

See weather overviewHow to use our weather pages